DW4008 Weather Reports


time (UTC)temp
C
wind
direction
speed
KPH
gust
KPH
rain 1hr
cm
rain 24hr
cm
rain mn
cm
humidity
%
barometer
mb
20260906214829 30 155 4.8 0.0 0.00 0.00 0.00 29 1021.4
20260906213319 30 167 4.8 0.0 0.00 0.00 0.00 29 1021.5
20260906211822 30 134 3.2 0.0 0.00 0.00 0.00 29 1021.8
20260906210324 30 169 4.8 0.0 0.00 0.00 0.00 29 1021.8
20260906204840 30 161 3.2 0.0 0.00 0.00 0.00 28 1021.8
20260906203330 30 133 4.8 0.0 0.00 0.00 0.00 28 1021.9
20260906201828 29 138 8.0 0.0 0.00 0.00 0.00 33 1022.0
20260906200343 29 142 4.8 0.0 0.00 0.00 0.00 34 1022.1
20260906194825 29 157 4.8 0.0 0.00 0.00 0.00 34 1022.3
20260906193326 28 143 3.2 0.0 0.00 0.00 0.00 36 1022.5
20260906191838 28 173 8.0 0.0 0.00 0.00 0.00 38 1022.7
20260906190323 28 141 8.0 0.0 0.00 0.00 0.00 38 1022.8
20260906184818 28 154 4.8 0.0 0.00 0.00 0.00 39 1023.0
20260906183333 27 121 4.8 0.0 0.00 0.00 0.00 39 1023.4
20260906181822 27 123 8.0 0.0 0.00 0.00 0.00 41 1023.7
20260906180318 27 144 6.4 0.0 0.00 0.00 0.00 39 1023.9
20260906174818 27 133 6.4 0.0 0.00 0.00 0.00 39 1024.1
20260906173330 27 138 6.4 0.0 0.00 0.00 0.00 38 1024.4
20260906171824 27 148 3.2 0.0 0.00 0.00 0.00 37 1024.5
20260906170315 27 130 6.4 0.0 0.00 0.00 0.00 35 1024.7
20260906164848 27 136 3.2 0.0 0.00 0.00 0.00 31 1024.7
20260906163318 26 132 4.8 0.0 0.00 0.00 0.00 30 1024.8
20260906161853 26 99 0.0 0.0 0.00 0.00 0.00 33 1024.9
20260906160328 25 40 0.0 0.0 0.00 0.00 0.00 31 1024.9
20260906154815 23 40 0.0 0.0 0.00 0.00 0.00 37 1024.8
20260906153328 21 39 0.0 0.0 0.00 0.00 0.00 41 1024.8
20260906151819 20 40 0.0 0.0 0.00 0.00 0.00 45 1024.8
20260906150322 18 51 0.0 0.0 0.00 0.00 0.00 49 1025.1
20260906144817 18 53 0.0 0.0 0.00 0.00 0.00 50 1025.1
20260906143322 17 53 0.0 0.0 0.00 0.00 0.00 56 1025.0
20260906141825 16 55 0.0 0.0 0.00 0.00 0.00 61 1024.9
20260906140320 15 55 0.0 0.0 0.00 0.00 0.00 62 1024.8
20260906134822 15 59 0.0 0.0 0.00 0.00 0.00 61 1025.0
20260906133336 15 46 0.0 0.0 0.00 0.00 0.00 66 1024.9
20260906131817 14 18 0.0 0.0 0.00 0.00 0.00 69 1024.8
20260906130317 14 59 3.2 0.0 0.00 0.00 0.00 71 1024.6
20260906124832 13 48 1.6 0.0 0.00 0.00 0.00 68 1024.5
20260906123315 13 39 0.0 0.0 0.00 0.00 0.00 59 1024.8
20260906121829 13 40 0.0 0.0 0.00 0.00 0.00 61 1024.7
20260906120316 14 39 0.0 0.0 0.00 0.00 0.00 55 1024.6
20260906114826 15 42 0.0 0.0 0.00 0.00 0.00 56 1024.5
20260906113325 15 42 0.0 0.0 0.00 0.00 0.00 55 1024.5
20260906111816 15 42 0.0 0.0 0.00 0.00 0.00 54 1024.5
20260906110334 15 37 0.0 0.0 0.00 0.00 0.00 53 1024.3
20260906104838 15 37 0.0 0.0 0.00 0.00 0.00 53 1024.1
20260906103331 15 44 1.6 0.0 0.00 0.00 0.00 52 1024.0
20260906101829 15 34 3.2 0.0 0.00 0.00 0.00 54 1023.8
20260906100318 15 34 3.2 0.0 0.00 0.00 0.00 53 1024.0
20260906094815 15 30 1.6 0.0 0.00 0.00 0.00 53 1024.0
20260906093334 15 46 0.0 0.0 0.00 0.00 0.00 54 1023.9
20260906091813 15 30 3.2 0.0 0.00 0.00 0.00 52 1023.9
20260906090329 15 17 3.2 0.0 0.00 0.00 0.00 53 1023.6
20260906084828 15 10 3.2 0.0 0.00 0.00 0.00 52 1023.6
20260906083351 16 36 0.0 0.0 0.00 0.00 0.00 53 1023.6
20260906081827 15 42 3.2 0.0 0.00 0.00 0.00 52 1024.6
20260906080324 16 46 0.0 0.0 0.00 0.00 0.00 52 1024.7
20260906074824 16 40 0.0 0.0 0.00 0.00 0.00 51 1024.9
20260906073336 16 40 0.0 0.0 0.00 0.00 0.00 50 1024.9
20260906071819 17 40 0.0 0.0 0.00 0.00 0.00 50 1024.8
20260906070316 17 38 0.0 0.0 0.00 0.00 0.00 48 1024.8
20260906064830 17 38 0.0 0.0 0.00 0.00 0.00 47 1024.8
20260906063339 17 38 0.0 0.0 0.00 0.00 0.00 46 1024.8
20260906061812 18 38 0.0 0.0 0.00 0.00 0.00 44 1024.7
20260906060323 18 38 0.0 0.0 0.00 0.00 0.00 44 1024.4
20260906054811 18 49 3.2 0.0 0.00 0.00 0.00 45 1024.2
20260906053325 17 33 0.0 0.0 0.00 0.00 0.00 46 1024.2
20260906051816 18 21 1.6 0.0 0.00 0.00 0.00 45 1024.1
20260906050308 18 42 0.0 0.0 0.00 0.00 0.00 44 1024.1
20260906044825 18 62 0.0 0.0 0.00 0.00 0.00 46 1024.0
20260906043320 19 31 1.6 0.0 0.00 0.00 0.00 44 1023.7
20260906041811 19 20 3.2 0.0 0.00 0.00 0.00 43 1023.6
20260906040311 19 27 3.2 0.0 0.00 0.00 0.00 43 1023.8
20260906034845 20 17 3.2 0.0 0.00 0.00 0.00 43 1023.8
20260906033319 20 24 1.6 0.0 0.00 0.00 0.00 44 1023.8
20260906031816 20 340 4.8 0.0 0.00 0.00 0.00 44 1023.7
20260906030312 20 28 4.8 0.0 0.00 0.00 0.00 44 1023.4
20260906024823 20 5 3.2 0.0 0.00 0.00 0.00 43 1023.3
20260906023316 20 28 1.6 0.0 0.00 0.00 0.00 43 1024.0
20260906021813 20 42 1.6 0.0 0.00 0.00 0.00 44 1023.7
20260906020324 21 40 1.6 0.0 0.00 0.00 0.00 43 1023.6
20260906014821 21 19 4.8 0.0 0.00 0.00 0.00 42 1023.6
20260906013315 21 18 1.6 0.0 0.00 0.00 0.00 41 1023.6
20260906011820 21 28 3.2 0.0 0.00 0.00 0.00 42 1023.7
20260906010319 22 5 4.8 0.0 0.00 0.00 0.00 43 1023.7
20260906004842 22 5 1.6 0.0 0.00 0.00 0.00 41 1023.8
20260906003340 22 40 0.0 0.0 0.00 0.00 0.00 39 1024.0
20260906001833 21 28 1.6 0.0 0.00 0.00 0.00 44 1024.1
20260906000315 23 281 9.7 0.0 0.00 0.00 0.00 40 1024.7
20260905234811 24 15 8.0 0.0 0.00 0.00 0.00 32 1024.6
20260905233332 25 355 4.8 0.0 0.00 0.00 0.00 30 1024.4
20260905231825 25 276 0.0 0.0 0.00 0.00 0.00 29 1024.3
20260905230326 27 175 1.6 0.0 0.00 0.00 0.00 25 1023.5
20260905224821 27 111 0.0 0.0 0.00 0.00 0.00 23 1023.0
20260905223346 27 115 1.6 0.0 0.00 0.00 0.00 23 1022.7
20260905221813 28 126 3.2 0.0 0.00 0.00 0.00 22 1022.6
20260905220328 28 108 6.4 0.0 0.00 0.00 0.00 22 1022.5